Dansville, NY

11:52 PM EDT on March 27, 2017 (GMT -0400)
Dansville Municipal

Weather History for KDSV - May, 2013

Change the Weather History Date:

Friday, May 10, 2013

  Actual Average Record
Temperature  
Mean Temperature 64 °F -  
Max Temperature 77 °F 66 °F 93 °F (1979)
Min Temperature 52 °F 42 °F 26 °F (1966)
Degree Days  
Heating Degree Days 2    
Growing Degree Days 14 (Base 50)    
Moisture  
Dew Point 57 °F    
Average Humidity 80    
Maximum Humidity 94    
Minimum Humidity 50    
Precipitation  
Precipitation 0.60 in - - ()
Sea Level Pressure  
Sea Level Pressure 29.86 in    
Wind  
Wind Speed 6 mph (SE)    
Max Wind Speed 12 mph    
Max Gust Speed 29 mph    
Visibility 8 miles    
Events Rain , Thunderstorm    
Averages and records for this station are not official NWS values.
T = Trace of Precipitation, MM = Missing Value Source: NWS Daily Summary

Daily Weather History Graph

Daily Weather History Graph

Search for Another Location

Airport or City:

Trip Planner

Search our weather history database for the weather conditions in past years. The results will help you decide how hot, cold, wet, or windy it might be!

Date:

Astronomy

May. 10, 2013 Rise Set
Actual Time 5:54 AM EDT 8:21 PM EDT
Civil Twilight 5:22 AM EDT 8:53 PM EDT
Nautical Twilight 4:42 AM EDT 9:32 PM EDT
Astronomical Twilight 3:58 AM EDT 10:17 PM EDT
Moon 6:16 AM EDT (5/10) 9:09 PM EDT (5/10)
Length of Visible Light 15h 30m
Length of Day
14h 27m
New Moon, 0% of the Moon is Illuminated
May 10
New Moon
May 18
First Quarter
May 25
Full
May 31
Last Quarter
Jun 8
New

Hourly Weather History & Observations

Time (EDT) Temp. Dew Point Humidity Pressure Visibility Wind Dir Wind Speed Gust Speed Precip Events Conditions
12:54 AM 55.9 °F 53.1 °F 90% 30.01 in 10.0 mi SSE 6.9 mph - N/A   Clear
2:54 AM 54.0 °F 52.0 °F 93% 30.00 in 10.0 mi SE 5.8 mph - N/A   Clear
3:54 AM 53.1 °F 51.1 °F 93% 30.00 in 10.0 mi SE 11.5 mph - 0.01 in   Clear
4:54 AM 52.0 °F 50.0 °F 93% 29.99 in 10.0 mi SE 10.4 mph - N/A   Clear
5:54 AM 52.0 °F 50.0 °F 93% 29.99 in 10.0 mi SE 10.4 mph - N/A   Clear
6:54 AM 52.0 °F 48.9 °F 89% 29.99 in 10.0 mi SE 8.1 mph - N/A   Clear
9:54 AM 64.0 °F 53.1 °F 67% 29.95 in 10.0 mi SE 4.6 mph - N/A   Mostly Cloudy
10:54 AM 66.9 °F 54.0 °F 63% 29.94 in 10.0 mi ESE 4.6 mph - N/A   Mostly Cloudy
11:54 AM 66.0 °F 55.9 °F 70% 29.95 in 10.0 mi SSE 3.5 mph - 0.00 in   Overcast
1:54 PM 75.0 °F 55.9 °F 51% 29.88 in 10.0 mi South 9.2 mph 20.7 mph N/A   Mostly Cloudy
2:54 PM 75.0 °F 55.0 °F 50% 29.86 in 10.0 mi South 8.1 mph - N/A   Mostly Cloudy
3:11 PM 73.4 °F 57.2 °F 57% 29.84 in 10.0 mi SSE 9.2 mph - 0.00 in Rain , Thunderstorm Light Rain
3:26 PM 71.6 °F 60.8 °F 69% 29.83 in 10.0 mi South 4.6 mph - 0.01 in   Mostly Cloudy
3:54 PM 73.0 °F 60.1 °F 64% 29.83 in 10.0 mi SE 8.1 mph - 0.01 in   Clear
4:54 PM 72.0 °F 59.0 °F 64% 29.81 in 10.0 mi SE 8.1 mph - N/A   Overcast
5:02 PM 71.6 °F 59.0 °F 64% 29.78 in 10.0 mi SSE 9.2 mph - 0.00 in Rain , Thunderstorm Light Rain
5:16 PM 69.8 °F 60.8 °F 73% 29.79 in 1.8 mi NNW 3.5 mph - 0.06 in Rain , Thunderstorm Heavy Thunderstorms and Rain
5:34 PM 66.2 °F 62.6 °F 88% 29.79 in 10.0 mi NNE 3.5 mph - 0.19 in Thunderstorm Thunderstorm
5:44 PM 66.2 °F 62.6 °F 88% 29.79 in 10.0 mi ESE 3.5 mph - 0.19 in   Scattered Clouds
5:54 PM 66.9 °F 63.0 °F 87% 29.81 in 10.0 mi Calm Calm - 0.19 in Thunderstorm Scattered Clouds
6:12 PM 66.2 °F 62.6 °F 88% 29.80 in 2.5 mi Calm Calm - 0.03 in Rain Rain
6:21 PM 66.2 °F 64.4 °F 94% 29.79 in 3.0 mi Calm Calm - 0.04 in Rain , Thunderstorm Light Thunderstorms and Rain
6:32 PM 64.4 °F 59.0 °F 83% 29.82 in 1.8 mi SW 8.1 mph 28.8 mph 0.12 in Rain , Thunderstorm Heavy Thunderstorms and Rain
6:43 PM 64.4 °F 57.2 °F 77% 29.83 in 3.0 mi South 8.1 mph - 0.16 in Rain , Thunderstorm Light Thunderstorms and Rain
6:54 PM 63.0 °F 57.9 °F 84% 29.85 in 4.0 mi Calm Calm - 0.17 in Rain , Thunderstorm Light Thunderstorms and Rain
7:03 PM 64.4 °F 57.2 °F 77% 29.82 in 2.0 mi Calm Calm - 0.02 in Rain , Thunderstorm Thunderstorms and Rain
7:10 PM 62.6 °F 57.2 °F 82% 29.82 in 4.0 mi SE 3.5 mph - 0.04 in Rain , Thunderstorm Light Thunderstorms and Rain
7:54 PM 61.0 °F 59.0 °F 93% 29.88 in 3.0 mi South 10.4 mph - 0.14 in Rain , Thunderstorm Heavy Rain
8:21 PM 60.8 °F 57.2 °F 88% 29.83 in 10.0 mi SE 4.6 mph - 0.04 in Rain Light Rain
8:54 PM 60.1 °F 57.9 °F 93% 29.83 in 10.0 mi ESE 4.6 mph - 0.04 in   Scattered Clouds
9:54 PM 60.1 °F 57.9 °F 93% 29.81 in 10.0 mi ESE 4.6 mph - N/A   Overcast
10:54 PM 60.1 °F 57.9 °F 93% 29.79 in 9.0 mi SE 8.1 mph - 0.01 in Rain Light Rain
11:54 PM 60.1 °F 57.9 °F 93% 29.77 in 9.0 mi ESE 3.5 mph - 0.03 in Rain Light Rain